Weather reports worldwide

Advertisment
Wick Airport (AWS), United Kingdom (3075): temperature & dewpoint: 16.06.2018 19:00:00 - 22.06.2018 19:00:00 (BST)Wick Airport (AWS), United Kingdom (3075): temperature -20cm: 16.06.2018 19:00:00 - 22.06.2018 19:00:00 (BST)Wick Airport (AWS), United Kingdom (3075): wind speed & gusts: 16.06.2018 19:00:00 - 22.06.2018 19:00:00 (BST)Wick Airport (AWS), United Kingdom (3075): wind direction: 16.06.2018 19:00:00 - 22.06.2018 19:00:00 (BST)Wick Airport (AWS), United Kingdom (3075): reduced air pressure: 16.06.2018 19:00:00 - 22.06.2018 19:00:00 (BST)Wick Airport (AWS), United Kingdom (3075): visibility: 16.06.2018 19:00:00 - 22.06.2018 19:00:00 (BST)Wick Airport (AWS), United Kingdom (3075): precipitation: 16.06.2018 19:00:00 - 22.06.2018 19:00:00 (BST)
Date & Time tt [°C] td [°C] tt -20cm [°C] ff [km/h] ff [kn] fx [km/h] fx [kn] dd ppp [hPa] vv [km] rr [mm]
22.06.2018 19:00:00 13,7 7,7 - 41 22 54 29 WNW 1027,1 24 0,0
22.06.2018 18:00:00 13,8 7,6 - 39 21 55 30 WNW 1027,3 21 0,0
22.06.2018 17:00:00 12,7 8,0 - 39 21 63 34 WNW 1027,6 28 0,0
22.06.2018 16:00:00 12,9 6,8 - 50 27 68 37 W 1027,7 35 0,0
22.06.2018 15:00:00 15,1 7,0 - 50 27 67 36 WNW 1027,8 17 0,0
22.06.2018 14:00:00 13,9 7,6 - 44 24 59 32 WNW 1028,4 17 0,0
22.06.2018 13:00:00 14,9 9,4 - 39 21 54 29 WNW 1028,3 22 0,0
22.06.2018 12:00:00 12,9 7,5 - 39 21 55 30 W 1028,7 26 0,0
22.06.2018 11:00:00 11,4 8,6 - 37 20 54 29 WNW 1028,8 22 0,0
22.06.2018 10:00:00 11,3 8,8 12,4 35 19 52 28 W 1028,7 22 0,0
22.06.2018 09:00:00 10,6 9,0 - 34 18 50 27 W 1028,6 16 0,0
22.06.2018 08:00:00 11,1 8,8 - 34 18 46 25 W 1028,5 28 0,0
22.06.2018 07:00:00 10,2 8,6 - 35 19 50 27 W 1028,5 24 0,0
22.06.2018 06:00:00 9,5 8,0 - 26 14 - - W 1028,7 22 0,0
22.06.2018 05:00:00 9,2 7,8 - 26 14 - - WNW 1028,7 16 0,0
22.06.2018 04:00:00 8,9 7,7 - 31 17 46 25 WNW 1028,7 15 0,0
22.06.2018 03:00:00 8,6 7,7 - 29 16 - - WNW 1028,6 11 0,0
22.06.2018 02:00:00 8,9 7,8 - 31 17 46 25 WNW 1028,4 11 0,0
22.06.2018 01:00:00 9,2 8,1 - 34 18 46 25 WNW 1028,4 12 0,0
22.06.2018 00:00:00 8,9 7,9 - 29 16 - - WNW 1028,3 13 0,0
21.06.2018 23:00:00 8,6 7,6 - 28 15 46 25 WNW 1028,2 13 0,0
21.06.2018 22:00:00 9,4 7,5 - 37 20 63 34 WNW 1027,4 14 0,0
21.06.2018 21:00:00 10,3 7,0 - 44 24 59 32 WNW 1026,9 20 0,0
21.06.2018 20:00:00 11,0 6,8 - 42 23 68 37 WNW 1026,5 18 0,0
21.06.2018 19:00:00 11,7 7,4 - 54 29 70 38 WNW 1026,1 17 0,0
21.06.2018 18:00:00 11,8 6,1 - 54 29 72 39 WNW 1025,7 20 0,0
21.06.2018 17:00:00 12,5 6,5 - 52 28 72 39 WNW 1025,0 16 0,0
21.06.2018 16:00:00 13,2 7,7 - 50 27 78 42 WNW 1024,7 14 0,0
21.06.2018 15:00:00 11,5 6,7 - 55 30 74 40 WNW 1024,0 15 0,0
21.06.2018 14:00:00 11,6 7,3 - 52 28 81 44 WNW 1023,4 16 0,0
21.06.2018 13:00:00 11,2 5,7 - 55 30 76 41 WNW 1022,6 30 0,0
21.06.2018 12:00:00 10,2 5,7 - 46 25 74 40 WNW 1022,0 13 0,0
21.06.2018 11:00:00 10,7 5,5 - 55 30 76 41 WNW 1021,6 15 0,0
21.06.2018 10:00:00 10,0 5,9 12,9 46 25 70 38 WNW 1021,1 17 0,0
21.06.2018 09:00:00 9,1 6,2 - 42 23 67 36 WNW 1020,5 13 0,0
21.06.2018 08:00:00 9,2 6,9 - 41 22 55 30 WNW 1019,6 17 0,0
21.06.2018 07:00:00 9,3 6,5 - 31 17 - - WNW 1019,1 16 0,0
21.06.2018 06:00:00 7,5 5,9 - 24 13 - - WNW 1019,0 30 0,0
21.06.2018 05:00:00 7,2 5,5 - 22 12 - - WNW 1018,4 35 0,0
21.06.2018 04:00:00 6,8 5,9 - 18 10 - - WNW 1017,8 30 0,0
21.06.2018 03:00:00 6,3 5,5 - 15 8 - - WNW 1017,3 45 1,6
21.06.2018 02:00:00 5,9 5,7 - 15 8 - - W 1016,7 35 0,2
21.06.2018 01:00:00 5,5 5,0 - 18 10 - - W 1016,1 45 0,0
21.06.2018 00:00:00 4,4 3,9 - 15 8 - - W 1015,7 50 0,0
20.06.2018 23:00:00 5,0 4,3 - 15 8 - - W 1015,2 50 0,0
20.06.2018 22:00:00 7,8 5,8 - 15 8 - - WNW 1014,9 45 0,2
20.06.2018 21:00:00 9,1 7,4 - 9 5 - - W 1014,6 50 0,0
20.06.2018 20:00:00 9,3 7,6 - 11 6 - - W 1014,5 20 0,2
20.06.2018 19:00:00 9,4 7,5 - 21 11 - - W 1014,7 9 0,2
20.06.2018 18:00:00 9,2 7,4 - 16 9 - - SW 1014,8 13 1,4
20.06.2018 17:00:00 11,2 8,0 - 21 11 - - WNW 1014,6 45 0,4
20.06.2018 16:00:00 12,1 5,8 - 24 13 - - W 1014,7 24 0,0
20.06.2018 15:00:00 12,9 5,2 - 18 10 - - WNW 1014,4 30 0,0
20.06.2018 14:00:00 12,1 6,5 - 28 15 - - WNW 1014,4 20 0,0
20.06.2018 13:00:00 13,3 5,6 - 22 12 - - NW 1013,8 30 0,0
20.06.2018 12:00:00 12,9 6,3 - 21 11 - - WNW 1013,7 45 0,0
20.06.2018 11:00:00 11,4 7,2 - 18 10 - - NW 1013,7 27 0,0
20.06.2018 10:00:00 10,1 8,4 13,2 9 5 - - W 1013,4 19 0,2
20.06.2018 09:00:00 10,4 8,8 - 9 5 - - N 1012,6 23 0,0
20.06.2018 08:00:00 8,6 8,3 - 4 2 - - WNW 1012,6 12 1,2
20.06.2018 07:00:00 8,3 7,8 - 9 5 - - WNW 1012,5 8 0,8
20.06.2018 06:00:00 8,8 8,2 - 5 3 - - N 1011,8 10 0,6
20.06.2018 05:00:00 8,8 7,9 - 4 2 - - NNE 1011,9 7 0,4
20.06.2018 04:00:00 9,1 7,8 - 8 4 - - NE 1012,1 13 0,0
20.06.2018 03:00:00 9,2 8,5 - 9 5 - - ENE 1012,8 11 0,0
20.06.2018 02:00:00 9,4 8,3 - 9 5 - - ENE 1013,4 14 0,0
20.06.2018 01:00:00 9,7 8,0 - 8 4 - - E 1013,8 16 0,0
20.06.2018 00:00:00 10,0 8,3 - 11 6 - - ESE 1014,4 17 0,0
19.06.2018 23:00:00 10,3 7,5 - 5 3 - - ESE 1014,8 15 0,0
19.06.2018 22:00:00 10,1 7,6 - 5 3 - - NNE 1014,7 16 0,0
19.06.2018 21:00:00 10,5 7,5 - 15 8 - - N 1014,8 21 0,0
19.06.2018 20:00:00 12,4 5,9 - 21 11 - - W 1014,5 30 0,0
19.06.2018 19:00:00 13,2 5,5 - 18 10 - - W 1014,6 35 0,0
19.06.2018 18:00:00 13,2 6,2 - 22 12 - - WNW 1014,6 28 0,0
19.06.2018 17:00:00 15,4 4,4 - 26 14 - - W 1014,3 30 0,0
19.06.2018 16:00:00 13,6 6,3 - 24 13 - - WNW 1014,5 45 0,0
19.06.2018 15:00:00 14,5 6,2 - 26 14 46 25 WNW 1014,1 17 0,0
19.06.2018 14:00:00 13,5 5,2 - 31 17 50 27 WSW 1014,0 30 0,0
19.06.2018 13:00:00 13,7 5,0 - 37 20 59 32 W 1013,4 24 0,0
19.06.2018 12:00:00 12,7 5,0 - 35 19 52 28 W 1013,2 30 0,0
19.06.2018 11:00:00 13,1 4,7 - 39 21 54 29 W 1012,5 28 0,0
19.06.2018 10:00:00 12,8 6,7 13,5 35 19 50 27 WSW 1012,1 45 0,0
19.06.2018 09:00:00 11,6 5,3 - 37 20 59 32 WSW 1011,5 25 0,0
19.06.2018 08:00:00 11,8 4,6 - 44 24 68 37 WSW 1010,4 29 0,0
19.06.2018 07:00:00 11,1 4,9 - 34 18 50 27 WSW 1009,5 30 0,0
19.06.2018 06:00:00 9,5 4,8 - 21 11 - - SW 1009,0 25 0,0
19.06.2018 05:00:00 9,0 5,0 - 26 14 50 27 WSW 1008,3 22 0,0
19.06.2018 04:00:00 9,0 4,5 - 28 15 46 25 SW 1007,7 26 0,0
19.06.2018 03:00:00 9,1 4,5 - 29 16 - - SW 1007,0 25 0,0
19.06.2018 02:00:00 9,2 4,3 - 26 14 50 27 WSW 1007,0 27 0,0
19.06.2018 01:00:00 9,2 3,9 - 34 18 54 29 WSW 1006,5 35 0,0
19.06.2018 00:00:00 9,4 5,0 - 35 19 52 28 WSW 1005,9 25 0,0
18.06.2018 23:00:00 9,7 5,2 - 31 17 - - SW 1005,9 29 0,0
18.06.2018 22:00:00 10,8 4,9 - 26 14 59 32 SW 1005,7 29 0,0
18.06.2018 21:00:00 11,2 4,8 - 39 21 72 39 WSW 1005,1 28 0,0
18.06.2018 20:00:00 13,2 4,2 - 41 22 65 35 WSW 1004,4 21 0,0
18.06.2018 19:00:00 13,2 5,1 - 46 25 80 43 WSW 1004,2 35 0,0
18.06.2018 18:00:00 14,2 5,2 - 42 23 70 38 WSW 1004,2 24 0,0
18.06.2018 17:00:00 14,3 4,8 - 42 23 65 35 WSW 1004,2 40 0,0
18.06.2018 16:00:00 14,8 6,1 - 48 26 61 33 WSW 1004,6 30 0,0
18.06.2018 15:00:00 14,5 6,6 - 26 14 50 27 SW 1004,7 45 0,0
18.06.2018 14:00:00 15,1 5,1 - 35 19 55 30 WSW 1004,7 25 0,0
18.06.2018 13:00:00 15,4 5,9 - 41 22 57 31 WSW 1004,8 30 0,0
18.06.2018 12:00:00 14,4 4,4 - 39 21 59 32 WSW 1004,9 30 0,0
18.06.2018 11:00:00 13,7 5,0 - 41 22 57 31 WSW 1005,4 40 0,0
18.06.2018 10:00:00 14,4 6,8 13,9 41 22 55 30 WSW 1004,8 35 0,0
18.06.2018 09:00:00 12,7 6,7 - 34 18 46 25 SW 1005,0 24 0,0
18.06.2018 08:00:00 11,9 6,3 - 28 15 - - SW 1004,8 22 0,0
18.06.2018 07:00:00 11,8 6,5 - 29 16 - - SW 1004,7 22 0,0
18.06.2018 06:00:00 11,9 6,4 - 34 18 46 25 SW 1004,3 25 0,0
18.06.2018 05:00:00 11,1 6,9 - 24 13 - - SW 1003,9 22 0,0
18.06.2018 04:00:00 11,7 8,1 - 24 13 - - SW 1003,7 50 0,0
18.06.2018 03:00:00 12,2 9,4 - 21 11 - - WSW 1003,0 50 0,0
18.06.2018 02:00:00 12,9 10,9 - 15 8 - - SSW 1003,2 50 0,0
18.06.2018 01:00:00 12,8 10,8 - 24 13 - - SSW 1002,4 45 0,0
18.06.2018 00:00:00 12,7 10,8 - 24 13 - - SSW 1002,5 50 0,0
17.06.2018 23:00:00 12,6 10,7 - 22 12 - - S 1002,8 45 0,0
17.06.2018 22:00:00 12,3 10,7 - 21 11 - - S 1003,0 40 0,4
17.06.2018 21:00:00 12,9 9,5 - 21 11 - - SSE 1003,9 25 0,0
17.06.2018 20:00:00 13,5 9,0 - 16 9 - - SSE 1004,3 35 0,0
17.06.2018 19:00:00 13,0 9,0 - 18 10 - - SSE 1004,6 25 0,0
17.06.2018 18:00:00 12,9 8,7 - 18 10 - - SSE 1005,2 29 0,0
17.06.2018 17:00:00 13,3 8,9 - 21 11 - - SSE 1005,8 21 0,0
17.06.2018 16:00:00 13,3 9,6 - 21 11 - - SE 1006,0 30 0,0
17.06.2018 15:00:00 13,4 9,2 - 21 11 - - SE 1006,5 15 0,0
17.06.2018 14:00:00 13,6 9,5 - 18 10 - - SE 1006,6 30 0,0
17.06.2018 13:00:00 12,6 8,4 - 18 10 - - SSE 1006,8 17 0,0
17.06.2018 12:00:00 12,8 8,4 - 15 8 - - SE 1006,9 17 0,0
17.06.2018 11:00:00 14,1 10,0 - 9 5 - - N 1006,5 26 0,0
17.06.2018 10:00:00 12,0 9,1 13,5 11 6 - - NW 1007,0 16 0,0
17.06.2018 09:00:00 11,2 10,7 - 13 7 - - NNW 1007,0 14 0,0
17.06.2018 08:00:00 10,6 9,8 - 13 7 - - WNW 1006,7 5 0,2
17.06.2018 07:00:00 11,3 10,3 - 8 4 - - SSW 1006,3 20 0,0
17.06.2018 06:00:00 10,7 9,8 - 9 5 - - S 1006,3 21 0,0
17.06.2018 05:00:00 10,3 9,5 - 4 2 - - SSE 1006,3 23 0,0
17.06.2018 04:00:00 10,2 9,7 - 8 4 - - SSE 1006,4 17 0,0
17.06.2018 03:00:00 10,1 9,6 - 11 6 - - ESE 1006,5 10 0,0
17.06.2018 02:00:00 10,2 9,4 - 8 4 - - ESE 1006,8 18 0,0
17.06.2018 01:00:00 10,0 9,0 - 11 6 - - ESE 1006,6 30 0,0
17.06.2018 00:00:00 10,2 9,3 - 11 6 - - ESE 1006,4 25 0,0
16.06.2018 23:00:00 10,4 9,7 - 13 7 - - ESE 1006,7 15 0,0
16.06.2018 22:00:00 10,7 9,9 - 13 7 - - ESE 1006,6 15 0,0
16.06.2018 21:00:00 11,2 10,3 - 16 9 - - SE 1006,4 14 0,0
16.06.2018 20:00:00 11,9 10,7 - 16 9 - - ESE 1006,4 17 0,0
16.06.2018 19:00:00 11,8 10,9 - 11 6 - - SE 1006,5 29 0,4

tt = temperature
td = dewpoint
tt -20cm = temperature -20cm
ff = wind speed
fx = gusts
dd = wind direction
ppp = reduced air pressure
vv = visibility
rr = precipitation

Next stations